sat.trackr.live / text

‹ back to catalog

SAKHACUBE-CHOLBON (RS1*)

NORAD 67290 · 2025-313AU

PAYLOAD ACTIVE UNKNOWN

§ Identity

Operator
Country
CIS
Launch date
2025-12-28
Launch site
VOSTO
Launch vehicle
Mass (kg)
RCS (m²)

External: N2YO · Heavens-Above · Gunter

§ Orbital elements

Epoch: 2026-05-25T04:33:06.878880Z

Period
94.46 min
Inclination
97.3939°
Eccentricity
0.0010839
Mean motion
15.24397969 rev/d
Perigee alt
485.1 km
Apogee alt
500.0 km
Semi-major
6,870.7 km
B*
3.8543e-4
RAAN
220.5194°
Arg perigee
81.2148°
Mean anomaly
279.0316°
Rev number
2,247

§ Raw data

SAKHACUBE-CHOLBON (RS1*)1 67290U 25313AU  26145.18966295  .00009394  00000+0  38543-3 0  99922 67290  97.3939 220.5194 0010839  81.2148 279.0316 15.24397969 22472

JSON: /api/v1/satellites/67290 · /tle

For live sub-satellite position, see the globe view (requires WebGL).

§ Visibility from observer

Set your observer location to see the next 7 days of passes ≥ 10°. The values pass through the URL so the page stays shareable.

No JS? Fill the form by hand. The geolocation button needs JavaScript.

§ Radio — SatNOGS DB

ModeDescriptionDownlinkUplink
GMSK USP Mode U - GMSK2k4 - USP 437.350 MHz
GMSK Mode U - GMSK9k6 - USP 437.350 MHz
SSTV SSTV 437.350 MHz

3 transmitters · refreshed weekly from db.satnogs.org